When you browse on this site, cookies collect data to enhance your experience and personalize the content and advertising you see.
Visit our Privacy Policy to learn more. By continuing to use the site, you agree to this use of cookies and data.
  • Em Portugal
  • Lista de países
  • Para 7 dias
  • Temperatura da água
  • Mapa do tempo
  • Widgets de tempo
  • user-avatar
    Iniciar Sessão

    Previsão horária em Yackovschina

    Hoje, 19 Setembro, Quinta-feira

    Tempo Temperatura Precipitação Vento Pressão Humidade
    00:00 +6°C° 0 mm 5 m/s 741 mmHg 90%
    01:00 +6°C° 0 mm 5 m/s 741 mmHg 90%
    02:00 +6°C° 0 mm 5 m/s 741 mmHg 90%
    03:00 +6°C° 0 mm 5 m/s 741 mmHg 90%
    04:00 +6°C° 0 mm 5 m/s 742 mmHg 90%
    05:00 +6°C° 0 mm 5 m/s 742 mmHg 90%
    06:00 +6°C° 0.1 mm 5 m/s 742 mmHg 89%
    07:00 +6°C° 0.1 mm 5 m/s 743 mmHg 89%
    08:00 +6°C° 0.1 mm 5 m/s 743 mmHg 89%
    09:00 +6°C° 0 mm 5 m/s 743 mmHg 87%
    10:00 +7°C° 0 mm 5 m/s 744 mmHg 84%
    11:00 +8°C° 0 mm 4 m/s 744 mmHg 82%
    12:00 +8°C° 0 mm 4 m/s 744 mmHg 77%
    13:00 +10°C° 0 mm 4 m/s 744 mmHg 72%
    14:00 +11°C° 0 mm 4 m/s 744 mmHg 67%
    15:00 +11°C° 0 mm 3 m/s 744 mmHg 67%
    16:00 +11°C° 0 mm 3 m/s 744 mmHg 67%
    17:00 +13°C° 0 mm 2 m/s 744 mmHg 67%
    18:00 +10°C° 0.1 mm 2 m/s 744 mmHg 72%
    19:00 +9°C° 0.1 mm 2 m/s 744 mmHg 78%
    20:00 +7°C° 0.1 mm 3 m/s 744 mmHg 83%
    21:00 +7°C° 0 mm 3 m/s 744 mmHg 85%
    22:00 +7°C° 0 mm 3 m/s 744 mmHg 87%
    23:00 +5°C° 0 mm 3 m/s 744 mmHg 90%

    Amanhã, 20 Setembro, Sexta-feira

    Tempo Temperatura Precipitação Vento Pressão Humidade
    00:00 +5°C° 0 mm 3 m/s 744 mmHg 91%
    01:00 +5°C° 0 mm 4 m/s 744 mmHg 93%
    02:00 +4°C° 0 mm 4 m/s 744 mmHg 94%
    03:00 +5°C° 0 mm 5 m/s 744 mmHg 92%
    04:00 +5°C° 0 mm 5 m/s 744 mmHg 91%
    05:00 +4°C° 0 mm 6 m/s 744 mmHg 89%
    06:00 +4°C° 0 mm 6 m/s 745 mmHg 86%
    07:00 +4°C° 0 mm 6 m/s 745 mmHg 83%
    08:00 +4°C° 0 mm 6 m/s 745 mmHg 79%
    09:00 +5°C° 0 mm 6 m/s 745 mmHg 75%
    10:00 +7°C° 0 mm 6 m/s 746 mmHg 70%
    11:00 +8°C° 0 mm 6 m/s 746 mmHg 65%
    12:00 +9°C° 0.1 mm 6 m/s 746 mmHg 61%
    13:00 +9°C° 0.1 mm 6 m/s 746 mmHg 57%
    14:00 +10°C° 0.1 mm 6 m/s 746 mmHg 53%
    15:00 +9°C° 0.1 mm 6 m/s 746 mmHg 55%
    16:00 +9°C° 0.1 mm 5 m/s 746 mmHg 57%
    17:00 +8°C° 0.1 mm 4 m/s 746 mmHg 59%
    18:00 +7°C° 0 mm 4 m/s 746 mmHg 64%
    19:00 +5°C° 0 mm 3 m/s 747 mmHg 68%
    20:00 +5°C° 0 mm 2 m/s 747 mmHg 73%
    21:00 +5°C° 0 mm 2 m/s 747 mmHg 76%
    22:00 +4°C° 0 mm 2 m/s 747 mmHg 78%
    23:00 +4°C° 0 mm 2 m/s 747 mmHg 81%

    Depois de amanhã, 21 Setembro, Sábado

    Tempo Temperatura Precipitação Vento Pressão Humidade
    00:00 +4°C° 0 mm 2 m/s 747 mmHg 81%
    01:00 +4°C° 0 mm 2 m/s 747 mmHg 81%
    02:00 +4°C° 0 mm 2 m/s 747 mmHg 80%
    03:00 +4°C° 0 mm 2 m/s 747 mmHg 79%
    04:00 +3°C° 0 mm 3 m/s 747 mmHg 77%
    05:00 +4°C° 0 mm 3 m/s 746 mmHg 75%
    06:00 +4°C° 0 mm 4 m/s 746 mmHg 75%
    07:00 +5°C° 0 mm 4 m/s 746 mmHg 76%
    08:00 +6°C° 0 mm 5 m/s 745 mmHg 76%
    09:00 +6°C° 0.7 mm 5 m/s 745 mmHg 81%
    10:00 +5°C° 0.7 mm 6 m/s 745 mmHg 87%
    11:00 +7°C° 0.7 mm 6 m/s 744 mmHg 93%
    12:00 +8°C° 0.2 mm 7 m/s 744 mmHg 92%
    13:00 +8°C° 0.2 mm 7 m/s 744 mmHg 92%
    14:00 +9°C° 0.2 mm 7 m/s 744 mmHg 91%
    15:00 +10°C° 0 mm 7 m/s 744 mmHg 90%
    16:00 +10°C° 0 mm 6 m/s 744 mmHg 89%
    17:00 +11°C° 0 mm 6 m/s 744 mmHg 88%
    18:00 +11°C° 0 mm 6 m/s 744 mmHg 89%
    19:00 +10°C° 0 mm 6 m/s 744 mmHg 90%
    20:00 +10°C° 0 mm 6 m/s 744 mmHg 92%
    21:00 +10°C° 0 mm 5 m/s 744 mmHg 92%
    22:00 +9°C° 0 mm 5 m/s 744 mmHg 93%
    23:00 +9°C° 0 mm 5 m/s 744 mmHg 93%

    22 Setembro, Domingo

    Tempo Temperatura Precipitação Vento Pressão Humidade
    00:00 +9°C° 0 mm 5 m/s 744 mmHg 94%
    01:00 +8°C° 0 mm 5 m/s 744 mmHg 95%
    02:00 +8°C° 0 mm 5 m/s 744 mmHg 95%
    03:00 +8°C° 0 mm 5 m/s 744 mmHg 94%
    04:00 +8°C° 0 mm 5 m/s 744 mmHg 94%
    05:00 +9°C° 0 mm 5 m/s 744 mmHg 93%
    06:00 +9°C° 0 mm 5 m/s 744 mmHg 92%
    07:00 +9°C° 0 mm 5 m/s 744 mmHg 91%
    08:00 +9°C° 0 mm 5 m/s 744 mmHg 90%
    09:00 +12°C° 0 mm 5 m/s 744 mmHg 85%
    10:00 +13°C° 0 mm 5 m/s 744 mmHg 80%
    11:00 +15°C° 0 mm 5 m/s 744 mmHg 75%
    12:00 +15°C° 0 mm 5 m/s 744 mmHg 72%
    13:00 +16°C° 0 mm 5 m/s 744 mmHg 69%
    14:00 +17°C° 0 mm 5 m/s 744 mmHg 66%
    15:00 +17°C° 0 mm 4 m/s 744 mmHg 69%
    16:00 +15°C° 0 mm 4 m/s 744 mmHg 72%
    17:00 +14°C° 0 mm 3 m/s 744 mmHg 76%
    18:00 +13°C° 0 mm 3 m/s 744 mmHg 80%
    19:00 +11°C° 0 mm 3 m/s 745 mmHg 84%
    20:00 +9°C° 0 mm 2 m/s 745 mmHg 88%
    21:00 +9°C° 0 mm 2 m/s 745 mmHg 84%
    22:00 +8°C° 0 mm 2 m/s 745 mmHg 80%
    23:00 +7°C° 0 mm 3 m/s 745 mmHg 76%

    23 Setembro, Segunda-feira

    Tempo Temperatura Precipitação Vento Pressão Humidade
    00:00 +7°C° 0 mm 3 m/s 745 mmHg 74%
    01:00 +5°C° 0 mm 3 m/s 745 mmHg 72%
    02:00 +5°C° 0 mm 3 m/s 745 mmHg 70%
    03:00 +5°C° 0 mm 3 m/s 745 mmHg 73%
    04:00 +5°C° 0 mm 3 m/s 744 mmHg 76%
    05:00 +4°C° 0 mm 4 m/s 744 mmHg 79%
    06:00 +5°C° 0 mm 4 m/s 744 mmHg 78%
    07:00 +6°C° 0 mm 4 m/s 743 mmHg 77%
    08:00 +7°C° 0 mm 5 m/s 743 mmHg 76%
    09:00 +9°C° 0 mm 5 m/s 743 mmHg 74%
    10:00 +10°C° 0 mm 5 m/s 742 mmHg 72%
    11:00 +13°C° 0 mm 5 m/s 742 mmHg 70%
    12:00 +14°C° 0 mm 5 m/s 741 mmHg 68%
    13:00 +15°C° 0 mm 5 m/s 741 mmHg 66%
    14:00 +17°C° 0 mm 5 m/s 740 mmHg 64%
    15:00 +17°C° 0 mm 4 m/s 739 mmHg 68%
    16:00 +15°C° 0 mm 4 m/s 739 mmHg 71%
    17:00 +14°C° 0 mm 3 m/s 738 mmHg 74%
    18:00 +13°C° 0.2 mm 3 m/s 738 mmHg 79%
    19:00 +12°C° 0.2 mm 3 m/s 737 mmHg 84%
    20:00 +11°C° 0.2 mm 3 m/s 737 mmHg 88%
    21:00 +12°C° 0 mm 2 m/s 737 mmHg 90%
    22:00 +12°C° 0 mm 2 m/s 736 mmHg 91%
    23:00 +12°C° 0 mm 2 m/s 736 mmHg 93%

    24 Setembro, Terça-feira

    Tempo Temperatura Precipitação Vento Pressão Humidade
    00:00 +11°C° 0 mm 1 m/s 736 mmHg 93%
    01:00 +11°C° 0 mm 1 m/s 735 mmHg 94%
    02:00 +11°C° 0 mm 1 m/s 735 mmHg 94%
    03:00 +11°C° 0 mm 1 m/s 735 mmHg 95%
    04:00 +10°C° 0 mm 0 m/s 735 mmHg 95%
    05:00 +10°C° 0 mm 0 m/s 734 mmHg 95%
    06:00 +10°C° 0 mm 0 m/s 734 mmHg 94%
    07:00 +12°C° 0 mm 1 m/s 734 mmHg 92%
    08:00 +12°C° 0 mm 1 m/s 735 mmHg 91%
    09:00 +13°C° 0 mm 1 m/s 735 mmHg 86%
    10:00 +14°C° 0 mm 1 m/s 735 mmHg 81%
    11:00 +15°C° 0 mm 1 m/s 735 mmHg 76%
    12:00 +15°C° 0 mm 1 m/s 735 mmHg 75%
    13:00 +16°C° 0 mm 2 m/s 735 mmHg 74%
    14:00 +16°C° 0 mm 2 m/s 735 mmHg 72%
    15:00 +16°C° 0 mm 2 m/s 736 mmHg 74%
    16:00 +16°C° 0 mm 2 m/s 736 mmHg 75%
    17:00 +15°C° 0 mm 2 m/s 736 mmHg 76%
    18:00 +15°C° 0 mm 2 m/s 736 mmHg 76%
    19:00 +14°C° 0 mm 1 m/s 737 mmHg 77%
    20:00 +14°C° 0 mm 1 m/s 737 mmHg 78%
    21:00 +13°C° 0 mm 1 m/s 737 mmHg 80%
    22:00 +13°C° 0 mm 1 m/s 737 mmHg 82%
    23:00 +11°C° 0 mm 0 m/s 737 mmHg 84%
    Mostrar mais